{"data":{"norad_id":65256,"intl_designator":"2025-179X","name":"STARLINK-34971","alt_names":[],"object_type":"PAYLOAD","status":"ACTIVE","operator":null,"country":"US","launch_date":"2025-08-18","launch_site_code":"AFWTR","launch_vehicle":null,"mission":null,"orbit_class":"UNKNOWN","rcs_meters":null,"size_class":null,"mass_kg":null,"dimensions":null,"purposes":["comms"],"wikipedia_slug":null,"has_3d_model":false,"image_url":null,"decayed_at":null,"tle_current":{"epoch":"2026-05-25T01:49:27.983712Z","epoch_age_seconds":62374,"freshness":"FRESH","line1":"1 65256U 25179X   26145.07601833 -.00003469  00000+0 -23653-3 0  9999","line2":"2 65256  97.4505 187.9156 0000748 178.8995 181.2234 15.05641538 43049","mean_motion":15.05641538,"eccentricity":7.48e-5,"inclination_deg":97.4505,"raan_deg":187.9156,"arg_perigee_deg":178.8995,"mean_anomaly_deg":181.2234,"bstar":-0.00023653,"rev_number":4304,"period_min":95.640294429762,"perigee_km":549.01892048328,"apogee_km":550.05530053021,"semimajor_km":6927.6741105067,"source":"CELESTRAK","updated_at":"2026-05-25T13:38:20.728494Z"}}}